Home   Weather   Oroville   Past weeks
Flag for USA

Past Weather in Oroville, Washington, USA — Yesterday and Last 2 Weeks

Now
66 °F

Mild.


Feels Like: 66 °F
Forecast: 71 / 46 °F
Wind: 3 mph from Northwest

Location: Osoyoos

Current Time: Apr 23, 2019 at 1:30:50 pm

Latest Report: Apr 23, 2019 at 12:00 pm


Visibility: N/A

Pressure: 29.99 "Hg

Humidity: 33%

Dew Point: 36 °F

Location of OrovilleLocation

Past Weather in Oroville — Graph

°F

Oroville Temperature Yesterday

Maximum temperature yesterday: 68 °F (at 6:00 pm)
Minimum temperature yesterday: 38 °F (at 6:00 am)
Average temperature yesterday: 54 °F

High & Low Weather Summary for the Past Weeks

 TemperatureHumidityPressure
High71 °F (Apr 21, 6:00 pm)97% (Apr 19, 4:00 am)30.23 "Hg (Apr 19, 4:00 am)
Low31 °F (Apr 15, 7:00 am)11% (Apr 21, 4:00 pm)29.65 "Hg (Apr 13, 8:00 pm)
Average52 °F54%29.97 "Hg
* Reported Apr 8 12:00 pm — Apr 23 12:00 pm, Oroville. Weather by CustomWeather, © 2019

Note: Actual official high and low records may vary slightly from our data, if they occured in-between our weather recording intervals... More about our weather records

Advertising

Oroville Weather History for the Previous 24 Hours

Scroll right to see more
 ConditionsComfort  
Time TempWeatherWind HumidityBarometerVisibility
12:00 pm
Tue, Apr 23
66 °FMild.3 mph33%29.99 "HgN/A
11:00 am63 °FMild.3 mph39%30.01 "HgN/A
10:00 am60 °FRefreshingly cool.2 mph44%30.03 "HgN/A
9:00 am55 °FRefreshingly cool.2 mph58%30.04 "HgN/A
8:00 am51 °FCool.No wind73%30.04 "HgN/A
7:00 am48 °FCool.1 mph77%30.06 "HgN/A
6:00 am47 °FCool.2 mph73%30.04 "HgN/A
5:00 am51 °FCool.3 mph74%30.05 "HgN/A
4:00 am51 °FCool.2 mph70%30.03 "HgN/A
3:00 am53 °FCool.1 mph63%30.03 "HgN/A
2:00 am54 °FCool.2 mph56%30.04 "HgN/A
1:00 am53 °FCool.1 mph60%30.03 "HgN/A
12:00 am53 °FCool.2 mph62%30.03 "HgN/A
11:00 pm
Mon, Apr 22
55 °FRefreshingly cool.1 mph53%30.03 "HgN/A
10:00 pm57 °FRefreshingly cool.7 mph50%30.04 "HgN/A
9:00 pm54 °FCool.8 mph56%30.03 "HgN/A
8:00 pm65 °FMild.2 mph39%29.99 "HgN/A
7:00 pm67 °FMild.5 mph35%30.01 "HgN/A
6:00 pm68 °FMild.7 mph32%30.03 "HgN/A
5:00 pm68 °FMild.6 mph31%30.04 "HgN/A
4:00 pm67 °FMild.8 mph35%30.06 "HgN/A
3:00 pm65 °FMild.10 mph37%30.09 "HgN/A
2:00 pm64 °FMild.14 mph33%30.11 "HgN/A
1:00 pm62 °FRefreshingly cool.6 mph35%30.14 "HgN/A
Weather by CustomWeather, © 2019

See weather overview